WetterOnline ( http://www.wetteronline.de )

Wetter aktuell Donau-Ries

Aktuelles Wetter: Harburg (503m)

6-stündlich | Neueste Meldungen
Ortszeit Temperatur Wetter
Sa, 23.06. 2:00 8.3° C leicht bewölkt
Fr, 22.06. 20:00 13.8° C leicht bewölkt
Fr, 22.06. 14:00 12.3° C bewölkt
Fr, 22.06. 8:00 9.6° C fast wolkenlos
Fr, 22.06. 2:00 10.9° C leicht bewölkt
Do, 21.06. 20:00 18.2° C leicht bewölkt
Do, 21.06. 14:00 24.3° C leicht bewölkt
Do, 21.06. 8:00 17.6° C leicht bewölkt
Ortszeit Temperatur Wetter
Sa, 23.06. 6:00 6.8° C bewölkt
Sa, 23.06. 5:50 6.8° C bewölkt
Sa, 23.06. 5:40 6.5° C wolkig
Sa, 23.06. 5:30 6.1° C fast wolkenlos
Sa, 23.06. 5:20 6.1° C fast wolkenlos
Sa, 23.06. 5:10 6.0° C leicht bewölkt
Sa, 23.06. 5:00 6.7° C wolkig
Sa, 23.06. 4:30 7.2° C leicht bewölkt
Sa, 23.06. 4:00 7.3° C wolkig
Sa, 23.06. 3:30 7.8° C leicht bewölkt
Sa, 23.06. 3:00 8.0° C wolkig
Ortszeit Relative Feuchte Sichtweite
Sa, 23.06. 2:00 79% 45 km
Fr, 22.06. 20:00 52% 30 km
Fr, 22.06. 14:00 56% 29 km
Fr, 22.06. 8:00 70% 30 km
Fr, 22.06. 2:00 59% 70 km
Do, 21.06. 20:00 65% 40 km
Do, 21.06. 14:00 51% 18 km
Do, 21.06. 8:00 88% 11 km
Ortszeit Relative Feuchte Sichtweite
Sa, 23.06. 6:00 88% 27 km
Sa, 23.06. 5:50 88% -
Sa, 23.06. 5:40 89% -
Sa, 23.06. 5:30 91% 28 km
Sa, 23.06. 5:20 91% -
Sa, 23.06. 5:10 93% -
Sa, 23.06. 5:00 87% 28 km
Sa, 23.06. 4:30 86% 30 km
Sa, 23.06. 4:00 84% 30 km
Sa, 23.06. 3:30 81% 35 km
Sa, 23.06. 3:00 81% 35 km
Ortszeit Niederschlagsmenge Niederschlagsart
Sa, 23.06. 2:00 0.0 l/m2 in 6 Std. -
Fr, 22.06. 20:00 0.0 l/m2 in 12 Std. -
Fr, 22.06. 14:00 0.0 l/m2 in 6 Std. -
Fr, 22.06. 8:00 0.0 l/m2 in 12 Std. -
Fr, 22.06. 2:00 0.0 l/m2 in 6 Std. -
Do, 21.06. 20:00 0.0 l/m2 in 12 Std. -
Do, 21.06. 14:00 0.0 l/m2 in 6 Std. -
Do, 21.06. 8:00 0.0 l/m2 in 12 Std. -
Ortszeit Niederschlagsmenge Niederschlagsart
Sa, 23.06. 6:00 0.0 l/m2 in 1 Std. -
Sa, 23.06. 5:50 keine Meldung -
Sa, 23.06. 5:40 keine Meldung -
Sa, 23.06. 5:30 0.0 l/m2 in 1 Std. -
Sa, 23.06. 5:20 keine Meldung -
Sa, 23.06. 5:10 keine Meldung -
Sa, 23.06. 5:00 0.0 l/m2 in 1 Std. -
Sa, 23.06. 4:30 0.0 l/m2 in 1 Std. -
Sa, 23.06. 4:00 0.0 l/m2 in 1 Std. -
Sa, 23.06. 3:30 0.0 l/m2 in 1 Std. -
Sa, 23.06. 3:00 0.0 l/m2 in 1 Std. -
Ortszeit Stärke Spitze Richtung
km/h Bft. km/h Grad Sektor
Sa, 23.06. 2:00 13 3 35 310° NW
Fr, 22.06. 20:00 22 4 50 310° NW
Fr, 22.06. 14:00 29 5 50 310° NW
Fr, 22.06. 8:00 17 3 28 290° W
Fr, 22.06. 2:00 18 3 54 300° NW
Do, 21.06. 20:00 29 5 61 320° NW
Do, 21.06. 14:00 35 5 56 310° NW
Do, 21.06. 8:00 9 2 13 150° SO
Ortszeit Stärke Spitze Richtung
km/h Bft. km/h Grad Sektor
Sa, 23.06. 6:00 0 0 7 - -
Sa, 23.06. 5:50 0 0 - 70° O
Sa, 23.06. 5:40 4 1 - 120° SO
Sa, 23.06. 5:30 4 1 7 170° S
Sa, 23.06. 5:20 4 1 - 170° S
Sa, 23.06. 5:10 4 1 - 150° SO
Sa, 23.06. 5:00 4 1 7 150° SO
Sa, 23.06. 4:30 0 0 7 - -
Sa, 23.06. 4:00 6 1 13 260° W
Sa, 23.06. 3:30 7 2 14 310° NW
Sa, 23.06. 3:00 11 2 19 310° NW
Ortszeit Untergrenze Bedeckung Gattung
total tief tief mittel hoch
Sa, 23.06. 2:00 6000 m 3/8 3/8 - - -
Fr, 22.06. 20:00 6000 m 3/8 3/8 - - -
Fr, 22.06. 14:00 1140 m 7/8 7/8 - - -
Fr, 22.06. 8:00 840 m 1/8 1/8 - - -
Fr, 22.06. 2:00 5700 m 4/8 4/8 - - -
Do, 21.06. 20:00 1320 m 2/8 2/8 - - -
Do, 21.06. 14:00 1500 m 5/8 3/8 - - -
Do, 21.06. 8:00 1500 m 4/8 4/8 - - -
Ortszeit Bedeckungsgrad in Achtel und Wolkenuntergrenze
Sa, 23.06. 6:00 6(750m) 7(1050m)
Sa, 23.06. 5:50 6(750m) 7(1050m)
Sa, 23.06. 5:40 5(720m) 5(5700m)
Sa, 23.06. 5:30 1(5700m) 2(5700m)
Sa, 23.06. 5:20 1(5700m)
Sa, 23.06. 5:10 2(6000m)
Sa, 23.06. 5:00 6(6000m)
Sa, 23.06. 4:30 2(6000m)
Sa, 23.06. 4:00 6(6000m)
Sa, 23.06. 3:30 3(6000m) 4(6900m)
Sa, 23.06. 3:00 5(6300m)
Ortszeit Luftdruck NN (hPa) Tendenz (hPa in 3 Std.)
Sa, 23.06. 2:00 1027 - 0,1
Fr, 22.06. 20:00 1024 + 0,6
Fr, 22.06. 14:00 1024 + 0,6
Fr, 22.06. 8:00 1024 + 0,3
Fr, 22.06. 2:00 1022 + 1,8
Do, 21.06. 20:00 1016 + 1,3
Do, 21.06. 14:00 1013 - 0,2
Do, 21.06. 8:00 1016 - 0,3
Ortszeit Luftdruck NN (hPa) Tendenz (hPa in 3 Std.)
Sa, 23.06. 6:00 1027 + 0,2
Sa, 23.06. 5:50 1027 keine Meldung
Sa, 23.06. 5:40 1027 keine Meldung
Sa, 23.06. 5:30 1027 - 0,2
Sa, 23.06. 5:20 1027 keine Meldung
Sa, 23.06. 5:10 1027 keine Meldung
Sa, 23.06. 5:00 1027 - 0,4
Sa, 23.06. 4:30 1026 - 0,7
Sa, 23.06. 4:00 1026 - 0,6
Sa, 23.06. 3:30 1026 - 0,5
Sa, 23.06. 3:00 1026 - 0,5
Ortszeit Schneehöhe (cm)
Sa, 23.06. 2:00 -
Fr, 22.06. 20:00 -
Fr, 22.06. 14:00 -
Fr, 22.06. 8:00 -
Fr, 22.06. 2:00 -
Do, 21.06. 20:00 -
Do, 21.06. 14:00 -
Do, 21.06. 8:00 -
Ortszeit Schneehöhe (cm)
Sa, 23.06. 6:00 -
Sa, 23.06. 5:50 -
Sa, 23.06. 5:40 -
Sa, 23.06. 5:30 -
Sa, 23.06. 5:20 -
Sa, 23.06. 5:10 -
Sa, 23.06. 5:00 -
Sa, 23.06. 4:30 -
Sa, 23.06. 4:00 -
Sa, 23.06. 3:30 -
Sa, 23.06. 3:00 -
Link zu dieser Seite / Seite empfehlen

Das Wetter in ...